Location: Sternwarte auf dem Internationalen Platz Vogelsang IP
(50.5721°N, 6.4398°E)
Time: 11:55:52
(UTC+01:00)

ACS3 Solar Sail - Pass Details

Date: 17 November 2025
Orbit: 888 x 1003 km, 97.3° (Epoch: 07 December)

Event Time Altitude Azimuth Distance (km) Brightness Sun altitude
Rises 03:50:31 0° 14° (NNE) 3,561 5.1 -37.9°
Reaches altitude 10° 03:52:56 10° 16° (NNE) 2,629 4.3 -37.5°
Enters shadow 03:55:20 26° 21° (NNE) 1,752 3.3 -37.2°
